User: anonymous   Login
Location: Kile Knob Observatory
(38.6083°N, 79.4792°W)
Time: 12:10:44
(UTC-05:00)
Language:

FO-29 - Orbit

View from above orbital plane
View from above orbital plane
View from above satellite
View from above satellite

Ground track
Ground track

The orbit data is extracted from the following two-line orbital elements,

1 24278U 96046B   19345.16787763 -.00000056  00000-0 -23022-4 0  9991
2 24278  98.5632 115.0049 0350902 145.0427 217.4305 13.53095168151538
Epoch (UTC): 11 December 2019 04:01:44
Eccentricity: 0.0350902
inclination: 98.5632°
perigee height: 800 km
apogee height: 1322 km
right ascension of ascending node: 115.0049°
argument of perigee: 145.0427°
revolutions per day: 13.53095168
mean anomaly at epoch: 217.4305°
orbit number at epoch: 15153

The dashed part of the orbit path shows where the satellite is in the earth's shadow,  

DLR